Location: Crescent
(42.8242°N, 73.7329°W)
Time: 16:34:32
(UTC+00:00)

S-56A Canister/Altair - Visible Passes

Search period start: 18 January 2026 00:00
Search period end: 28 January 2026 00:00
Orbit: 632 x 2485 km, 38.9° (Epoch: 17 January)

Date Brightness Start Highest point End Pass type
(mag) Time Alt. Az. Time Alt. Az. Time Alt. Az.
18 Jan 11.9 10:19:24 10° SSE 10:27:28 17° SE 10:35:39 10° E visible
19 Jan 12.0 09:46:05 10° SSE 09:52:13 14° SE 09:58:31 10° E visible
19 Jan 11.4 11:43:05 10° SSW 11:56:05 40° SE 12:08:46 10° E visible
20 Jan 12.0 09:14:29 10° SE 09:17:03 11° SE 09:19:38 10° ESE visible
20 Jan 11.4 11:08:11 10° SSW 11:20:33 36° SE 11:33:05 10° E visible
21 Jan 11.4 10:33:28 10° SSW 10:45:04 32° SE 10:57:15 10° E visible
22 Jan 11.4 09:58:59 10° S 10:09:39 28° SE 10:21:12 10° E visible
23 Jan 11.4 09:24:43 10° S 09:34:20 24° SE 09:44:57 10° E visible
23 Jan 10.8 11:25:14 10° SW 11:38:41 53° SSE 11:52:40 10° E visible
24 Jan 11.4 08:50:46 10° S 08:59:06 20° SE 09:08:24 10° E visible
24 Jan 10.8 10:50:13 10° SW 11:03:02 49° SSE 11:16:59 10° E visible
25 Jan 11.4 08:17:14 10° SSE 08:23:58 16° SE 08:31:26 10° E visible
25 Jan 10.8 10:15:20 10° SSW 10:27:27 45° SE 10:41:11 10° E visible
26 Jan 11.5 07:44:36 10° SE 07:48:56 12° ESE 07:53:36 10° ESE visible
26 Jan 10.8 09:40:37 10° SSW 09:51:58 40° SE 10:05:15 10° E visible
27 Jan 10.8 09:07:06 13° SSW 09:16:35 35° SE 09:29:12 10° E visible
27 Jan 10.4 11:08:14 10° WSW 11:21:28 65° SSE 11:36:13 10° E visible
